| time (UTC) | temp F | wind direction | speed MPH | gust MPH | rain 1hr in | rain 24hr in | rain mn in | humidity % | barometer mb |
| 20260508193849 | 61 | 228 | 0.0 | 1.0 | 0.00 | 0.00 | 0.00 | 58 | 1011.4 |
| 20260508193337 | 61 | 248 | 0.0 | 1.0 | 0.00 | 0.00 | 0.00 | 54 | 1011.4 |
| 20260508193112 | 61 | 259 | 0.0 | 1.0 | 0.00 | 0.00 | 0.00 | 57 | 1010.6 |
| 20260508192828 | 62 | 255 | 0.0 | 0.0 | 0.00 | 0.00 | 0.00 | 49 | 1011.4 |
| 20260508192346 | 62 | 236 | 0.0 | 0.0 | 0.00 | 0.00 | 0.00 | 55 | 1011.4 |
| 20260508191826 | 62 | 249 | 0.0 | 0.0 | 0.00 | 0.00 | 0.00 | 60 | 1011.4 |
| 20260508191334 | 62 | 257 | 0.0 | 1.0 | 0.00 | 0.00 | 0.00 | 49 | 1011.4 |
| 20260508190831 | 61 | 249 | 0.0 | 1.0 | 0.00 | 0.00 | 0.00 | 58 | 1011.4 |
| 20260508190358 | 61 | 236 | 0.0 | 1.0 | 0.00 | 0.00 | 0.00 | 55 | 1011.4 |
| 20260508185822 | 61 | 256 | 0.0 | 1.0 | 0.00 | 0.00 | 0.00 | 59 | 1011.4 |
| 20260508185331 | 61 | 243 | 0.0 | 1.0 | 0.00 | 0.00 | 0.00 | 52 | 1011.4 |
| 20260508184822 | 60 | 219 | 0.0 | 1.0 | 0.00 | 0.00 | 0.00 | 63 | 1011.4 |
| 20260508184617 | 59 | 243 | 0.0 | 1.0 | 0.00 | 0.00 | 0.00 | 62 | 1010.7 |
| 20260508184332 | 60 | 246 | 0.0 | 2.0 | 0.00 | 0.00 | 0.00 | 58 | 1011.4 |
| 20260508183830 | 59 | 250 | 0.0 | 2.0 | 0.00 | 0.00 | 0.00 | 62 | 1011.4 |
| 20260508183338 | 59 | 242 | 1.0 | 4.0 | 0.00 | 0.00 | 0.00 | 61 | 1011.4 |
| 20260508183101 | 59 | 243 | 0.0 | 4.0 | 0.00 | 0.00 | 0.00 | 62 | 1010.7 |
| 20260508182819 | 59 | 222 | 1.0 | 4.0 | 0.00 | 0.00 | 0.00 | 61 | 1011.5 |
| 20260508182326 | 59 | 243 | 2.0 | 4.0 | 0.00 | 0.00 | 0.00 | 62 | 1011.5 |
| 20260508181835 | 59 | 239 | 1.0 | 4.0 | 0.00 | 0.00 | 0.00 | 66 | 1011.6 |
| 20260508181518 | 58 | 242 | 1.0 | 3.0 | 0.00 | 0.00 | 0.00 | 65 | 1010.8 |
| 20260508181338 | 59 | 239 | 0.0 | 1.0 | 0.00 | 0.00 | 0.00 | 64 | 1011.6 |
| 20260508180832 | 59 | 246 | 0.0 | 2.0 | 0.00 | 0.00 | 0.00 | 63 | 1011.6 |
| 20260508180339 | 59 | 236 | 1.0 | 3.0 | 0.00 | 0.00 | 0.00 | 61 | 1011.6 |
| 20260508180052 | 58 | 235 | 1.0 | 3.0 | 0.00 | 0.00 | 0.00 | 64 | 1010.8 |
| 20260508175829 | 59 | 245 | 2.0 | 3.0 | 0.00 | 0.00 | 0.00 | 66 | 1011.6 |
| 20260508175333 | 59 | 242 | 1.0 | 3.0 | 0.00 | 0.00 | 0.00 | 62 | 1011.6 |
| 20260508174837 | 59 | 243 | 2.0 | 4.0 | 0.00 | 0.00 | 0.00 | 61 | 1011.6 |
| 20260508174558 | 58 | 253 | 2.0 | 4.0 | 0.00 | 0.00 | 0.00 | 61 | 1010.8 |
| 20260508174331 | 59 | 239 | 3.0 | 4.0 | 0.00 | 0.00 | 0.00 | 63 | 1011.5 |
| 20260508173832 | 59 | 242 | 4.0 | 4.0 | 0.00 | 0.00 | 0.00 | 65 | 1011.6 |
| 20260508173333 | 59 | 243 | 1.0 | 3.0 | 0.00 | 0.00 | 0.00 | 65 | 1011.6 |
| 20260508173019 | 58 | 228 | 1.0 | 4.0 | 0.00 | 0.00 | 0.00 | 65 | 1010.8 |
| 20260508172842 | 58 | 243 | 1.0 | 3.0 | 0.00 | 0.00 | 0.00 | 65 | 1011.6 |
| 20260508172337 | 59 | 235 | 1.0 | 3.0 | 0.00 | 0.00 | 0.00 | 64 | 1011.6 |
| 20260508171834 | 59 | 219 | 0.0 | 3.0 | 0.00 | 0.00 | 0.00 | 65 | 1011.6 |
| 20260508171608 | 58 | 238 | 0.0 | 3.0 | 0.00 | 0.00 | 0.00 | 64 | 1010.7 |
| 20260508171343 | 59 | 221 | 0.0 | 3.0 | 0.00 | 0.00 | 0.00 | 66 | 1011.6 |
| 20260508170817 | 58 | 236 | 2.0 | 4.0 | 0.00 | 0.00 | 0.00 | 64 | 1011.7 |
| 20260508170339 | 58 | 219 | 1.0 | 4.0 | 0.00 | 0.00 | 0.00 | 65 | 1011.8 |
| 20260508170112 | 57 | 228 | 1.0 | 4.0 | 0.00 | 0.00 | 0.00 | 65 | 1011.0 |
| 20260508165830 | 58 | 236 | 2.0 | 4.0 | 0.00 | 0.00 | 0.00 | 68 | 1011.9 |
| 20260508165337 | 58 | 255 | 0.0 | 1.0 | 0.00 | 0.00 | 0.00 | 69 | 1011.8 |
| 20260508164819 | 57 | 236 | 0.0 | 2.0 | 0.00 | 0.00 | 0.00 | 68 | 1011.8 |
| 20260508164611 | 57 | 248 | 0.0 | 2.0 | 0.00 | 0.00 | 0.00 | 67 | 1011.1 |
| 20260508164348 | 58 | 246 | 1.0 | 3.0 | 0.00 | 0.00 | 0.00 | 68 | 1012.0 |
| 20260508163844 | 57 | 228 | 1.0 | 3.0 | 0.00 | 0.00 | 0.00 | 67 | 1012.0 |
| 20260508163401 | 57 | 246 | 1.0 | 5.0 | 0.00 | 0.00 | 0.00 | 69 | 1012.0 |
| 20260508163055 | 57 | 231 | 0.0 | 5.0 | 0.00 | 0.00 | 0.00 | 68 | 1011.3 |
| 20260508162842 | 58 | 228 | 2.0 | 5.0 | 0.00 | 0.00 | 0.00 | 69 | 1012.1 |
| 20260508162318 | 58 | 236 | 2.0 | 4.0 | 0.00 | 0.00 | 0.00 | 64 | 1012.1 |
| 20260508161834 | 59 | 219 | 1.0 | 4.0 | 0.00 | 0.00 | 0.00 | 60 | 1012.1 |
| 20260508161512 | 58 | 240 | 0.0 | 4.0 | 0.00 | 0.00 | 0.00 | 60 | 1011.3 |
| 20260508161336 | 59 | 264 | 0.0 | 0.0 | 0.00 | 0.00 | 0.00 | 57 | 1012.0 |
| 20260508160826 | 58 | 31 | 0.0 | 0.0 | 0.00 | 0.00 | 0.00 | 55 | 1012.1 |
| 20260508160348 | 58 | 32 | 0.0 | 0.0 | 0.00 | 0.00 | 0.00 | 56 | 1012.1 |
| 20260508160128 | 58 | 31 | 0.0 | 0.0 | 0.00 | 0.00 | 0.00 | 57 | 1011.3 |
| 20260508155835 | 58 | 34 | 0.0 | 0.0 | 0.00 | 0.00 | 0.00 | 59 | 1012.1 |
| 20260508155347 | 58 | 34 | 0.0 | 0.0 | 0.00 | 0.00 | 0.00 | 59 | 1012.2 |
| 20260508154827 | 58 | 29 | 0.0 | 0.0 | 0.00 | 0.00 | 0.00 | 58 | 1012.2 |
| 20260508154606 | 57 | 34 | 0.0 | 0.0 | 0.00 | 0.00 | 0.00 | 58 | 1011.4 |
| 20260508154336 | 58 | 32 | 0.0 | 0.0 | 0.00 | 0.00 | 0.00 | 58 | 1012.2 |
| 20260508153833 | 57 | 39 | 0.0 | 0.0 | 0.00 | 0.00 | 0.00 | 58 | 1012.2 |
| 20260508153341 | 57 | 29 | 0.0 | 0.0 | 0.00 | 0.00 | 0.00 | 58 | 1012.2 |
| 20260508153111 | 56 | 29 | 0.0 | 0.0 | 0.00 | 0.00 | 0.00 | 58 | 1011.5 |
| 20260508152336 | 57 | 29 | 0.0 | 0.0 | 0.00 | 0.00 | 0.00 | 58 | 1012.2 |
| 20260508151829 | 57 | 22 | 0.0 | 0.0 | 0.00 | 0.00 | 0.00 | 57 | 1012.3 |
| 20260508151605 | 56 | 15 | 0.0 | 0.0 | 0.00 | 0.00 | 0.00 | 58 | 1011.5 |
| 20260508151344 | 56 | 15 | 0.0 | 0.0 | 0.00 | 0.00 | 0.00 | 60 | 1012.3 |
| 20260508150821 | 56 | 5 | 0.0 | 0.0 | 0.00 | 0.00 | 0.00 | 59 | 1012.2 |
| 20260508150342 | 56 | 27 | 0.0 | 0.0 | 0.00 | 0.00 | 0.00 | 57 | 1012.2 |
| 20260508150110 | 56 | 27 | 0.0 | 0.0 | 0.00 | 0.00 | 0.00 | 59 | 1011.4 |
| 20260508145828 | 56 | 29 | 0.0 | 0.0 | 0.00 | 0.00 | 0.00 | 58 | 1012.1 |
| 20260508145341 | 56 | 32 | 0.0 | 0.0 | 0.00 | 0.00 | 0.00 | 59 | 1012.0 |
| 20260508144846 | 56 | 34 | 0.0 | 0.0 | 0.00 | 0.00 | 0.00 | 58 | 1012.0 |
| 20260508144600 | 56 | 46 | 0.0 | 0.0 | 0.00 | 0.00 | 0.00 | 57 | 1011.2 |
| 20260508144328 | 56 | 93 | 0.0 | 0.0 | 0.00 | 0.00 | 0.00 | 57 | 1012.1 |
| 20260508143821 | 57 | 46 | 0.0 | 0.0 | 0.00 | 0.00 | 0.00 | 57 | 1012.0 |
| 20260508143331 | 56 | 49 | 0.0 | 1.0 | 0.00 | 0.00 | 0.00 | 57 | 1012.0 |
| 20260508143105 | 55 | 37 | 0.0 | 1.0 | 0.00 | 0.00 | 0.00 | 57 | 1011.3 |
| 20260508142840 | 56 | 85 | 0.0 | 1.0 | 0.00 | 0.00 | 0.00 | 57 | 1012.0 |
| 20260508142331 | 56 | 27 | 0.0 | 0.0 | 0.00 | 0.00 | 0.00 | 57 | 1012.0 |
| 20260508141822 | 56 | 31 | 0.0 | 0.0 | 0.00 | 0.00 | 0.00 | 56 | 1012.1 |
| 20260508141507 | 55 | 36 | 0.0 | 0.0 | 0.00 | 0.00 | 0.00 | 57 | 1011.4 |
| 20260508141329 | 56 | 27 | 0.0 | 0.0 | 0.00 | 0.00 | 0.00 | 57 | 1012.2 |
| 20260508140835 | 56 | 36 | 0.0 | 0.0 | 0.00 | 0.00 | 0.00 | 55 | 1012.2 |
| 20260508140327 | 56 | 46 | 0.0 | 0.0 | 0.00 | 0.00 | 0.00 | 56 | 1012.1 |
| 20260508140111 | 55 | 89 | 0.0 | 0.0 | 0.00 | 0.00 | 0.00 | 56 | 1011.4 |
| 20260508135828 | 55 | 96 | 0.0 | 0.0 | 0.00 | 0.00 | 0.00 | 57 | 1012.2 |
| 20260508135334 | 55 | 89 | 0.0 | 0.0 | 0.00 | 0.00 | 0.00 | 57 | 1012.2 |
| 20260508134828 | 55 | 75 | 0.0 | 0.0 | 0.00 | 0.00 | 0.00 | 58 | 1012.2 |
| 20260508134602 | 54 | 43 | 0.0 | 0.0 | 0.00 | 0.00 | 0.00 | 58 | 1011.4 |
| 20260508134319 | 54 | 114 | 0.0 | 0.0 | 0.00 | 0.00 | 0.00 | 59 | 1012.2 |
| 20260508133834 | 54 | 40 | 0.0 | 0.0 | 0.00 | 0.00 | 0.00 | 59 | 1012.2 |
| 20260508133348 | 54 | 79 | 0.0 | 0.0 | 0.00 | 0.00 | 0.00 | 59 | 1012.2 |
| 20260508133111 | 53 | 70 | 0.0 | 0.0 | 0.00 | 0.00 | 0.00 | 59 | 1011.4 |
| 20260508132849 | 54 | 90 | 0.0 | 0.0 | 0.00 | 0.00 | 0.00 | 60 | 1012.2 |
| 20260508132335 | 53 | 51 | 0.0 | 0.0 | 0.00 | 0.00 | 0.00 | 59 | 1012.2 |
| 20260508131835 | 53 | 66 | 0.0 | 0.0 | 0.00 | 0.00 | 0.00 | 61 | 1012.2 |
| 20260508131554 | 53 | 25 | 0.0 | 0.0 | 0.00 | 0.00 | 0.00 | 59 | 1011.3 |
| 20260508131331 | 53 | 169 | 0.0 | 0.0 | 0.00 | 0.00 | 0.00 | 59 | 1012.1 |
| 20260508130837 | 53 | 94 | 0.0 | 0.0 | 0.00 | 0.00 | 0.00 | 61 | 1012.1 |
| 20260508130327 | 52 | 98 | 0.0 | 0.0 | 0.00 | 0.00 | 0.00 | 62 | 1012.1 |
| 20260508130017 | 52 | 103 | 0.0 | 0.0 | 0.00 | 0.00 | 0.00 | 62 | 1011.2 |
| 20260508125838 | 52 | 105 | 0.0 | 0.0 | 0.00 | 0.00 | 0.00 | 62 | 1012.0 |
| 20260508125331 | 52 | 88 | 0.0 | 0.0 | 0.00 | 0.00 | 0.00 | 63 | 1012.0 |
| 20260508124818 | 52 | 88 | 0.0 | 0.0 | 0.00 | 0.00 | 0.00 | 63 | 1012.0 |
| 20260508124606 | 51 | 88 | 0.0 | 0.0 | 0.00 | 0.00 | 0.00 | 62 | 1011.2 |
| 20260508124322 | 52 | 87 | 0.0 | 0.0 | 0.00 | 0.00 | 0.00 | 62 | 1012.0 |
| 20260508123821 | 52 | 88 | 0.0 | 0.0 | 0.00 | 0.00 | 0.00 | 63 | 1011.9 |
| 20260508123328 | 52 | 87 | 0.0 | 0.0 | 0.00 | 0.00 | 0.00 | 64 | 1011.9 |
| 20260508123056 | 51 | 96 | 0.0 | 0.0 | 0.00 | 0.00 | 0.00 | 63 | 1011.1 |
| 20260508122821 | 52 | 97 | 0.0 | 0.0 | 0.00 | 0.00 | 0.00 | 63 | 1011.9 |
| 20260508122331 | 52 | 96 | 0.0 | 0.0 | 0.00 | 0.00 | 0.00 | 63 | 1011.9 |
| 20260508121829 | 52 | 103 | 0.0 | 0.0 | 0.00 | 0.00 | 0.00 | 64 | 1011.9 |
| 20260508121608 | 52 | 105 | 0.0 | 0.0 | 0.00 | 0.00 | 0.00 | 64 | 1011.1 |
| 20260508121333 | 52 | 105 | 0.0 | 0.0 | 0.00 | 0.00 | 0.00 | 63 | 1011.9 |
| 20260508120845 | 53 | 105 | 0.0 | 0.0 | 0.00 | 0.00 | 0.00 | 65 | 1011.9 |
| 20260508120329 | 53 | 106 | 0.0 | 0.0 | 0.00 | 0.00 | 0.00 | 63 | 1011.9 |
| 20260508120108 | 53 | 107 | 0.0 | 0.0 | 0.00 | 0.00 | 0.00 | 61 | 1011.1 |
| 20260508115902 | 53 | 95 | 0.0 | 0.0 | 0.00 | 0.00 | 0.00 | 60 | 1011.9 |
| 20260508115323 | 53 | 85 | 0.0 | 0.0 | 0.00 | 0.00 | 0.00 | 59 | 1011.9 |
| 20260508114837 | 53 | 96 | 0.0 | 0.0 | 0.00 | 0.00 | 0.00 | 59 | 1011.9 |
| 20260508114556 | 53 | 86 | 0.0 | 0.0 | 0.00 | 0.00 | 0.00 | 59 | 1011.1 |
| 20260508114335 | 53 | 96 | 0.0 | 0.0 | 0.00 | 0.00 | 0.00 | 59 | 1011.9 |
| 20260508113821 | 53 | 99 | 0.0 | 0.0 | 0.00 | 0.00 | 0.00 | 59 | 1011.9 |
| 20260508113340 | 54 | 110 | 0.0 | 0.0 | 0.00 | 0.00 | 0.00 | 59 | 1011.9 |
| 20260508112825 | 54 | 26 | 0.0 | 0.0 | 0.00 | 0.00 | 0.00 | 58 | 1011.9 |
| 20260508112326 | 54 | 91 | 0.0 | 0.0 | 0.00 | 0.00 | 0.00 | 57 | 1011.9 |
| 20260508111839 | 54 | 97 | 0.0 | 0.0 | 0.00 | 0.00 | 0.00 | 57 | 1011.9 |
| 20260508111603 | 54 | 98 | 0.0 | 0.0 | 0.00 | 0.00 | 0.00 | 57 | 1011.0 |
| 20260508111335 | 55 | 94 | 0.0 | 0.0 | 0.00 | 0.00 | 0.00 | 56 | 1011.8 |
| 20260508110819 | 55 | 94 | 0.0 | 0.0 | 0.00 | 0.00 | 0.00 | 57 | 1011.7 |
| 20260508110329 | 55 | 68 | 0.0 | 0.0 | 0.00 | 0.00 | 0.00 | 56 | 1011.8 |
| 20260508110117 | 55 | 88 | 0.0 | 0.0 | 0.00 | 0.00 | 0.00 | 55 | 1010.9 |
| 20260508105822 | 55 | 88 | 0.0 | 0.0 | 0.00 | 0.00 | 0.00 | 55 | 1011.8 |
| 20260508105341 | 56 | 91 | 0.0 | 0.0 | 0.00 | 0.00 | 0.00 | 55 | 1011.8 |
| 20260508104819 | 56 | 99 | 0.0 | 0.0 | 0.00 | 0.00 | 0.00 | 55 | 1011.8 |
| 20260508104600 | 55 | 105 | 0.0 | 0.0 | 0.00 | 0.00 | 0.00 | 54 | 1011.0 |
| 20260508104326 | 56 | 120 | 0.0 | 0.0 | 0.00 | 0.00 | 0.00 | 53 | 1011.8 |
| 20260508103823 | 56 | 108 | 0.0 | 0.0 | 0.00 | 0.00 | 0.00 | 53 | 1011.8 |
| 20260508103327 | 56 | 73 | 0.0 | 0.0 | 0.00 | 0.00 | 0.00 | 53 | 1011.7 |
| 20260508103015 | 56 | 68 | 0.0 | 0.0 | 0.00 | 0.00 | 0.00 | 53 | 1010.9 |
| 20260508102836 | 56 | 51 | 0.0 | 0.0 | 0.00 | 0.00 | 0.00 | 53 | 1011.8 |
| 20260508102334 | 56 | 46 | 0.0 | 0.0 | 0.00 | 0.00 | 0.00 | 55 | 1011.6 |
| 20260508101900 | 56 | 73 | 0.0 | 0.0 | 0.00 | 0.00 | 0.00 | 53 | 1011.7 |
| 20260508101601 | 56 | 80 | 0.0 | 0.0 | 0.00 | 0.00 | 0.00 | 53 | 1010.9 |
| 20260508101353 | 56 | 95 | 0.0 | 0.0 | 0.00 | 0.00 | 0.00 | 53 | 1011.7 |
| 20260508100824 | 56 | 49 | 0.0 | 0.0 | 0.00 | 0.00 | 0.00 | 53 | 1011.6 |
| 20260508100325 | 56 | 78 | 0.0 | 0.0 | 0.00 | 0.00 | 0.00 | 54 | 1011.6 |
| 20260508100009 | 56 | 43 | 0.0 | 0.0 | 0.00 | 0.00 | 0.00 | 54 | 1010.7 |
| 20260508095833 | 57 | 46 | 0.0 | 0.0 | 0.00 | 0.00 | 0.00 | 53 | 1011.6 |
| 20260508095357 | 57 | 96 | 0.0 | 0.0 | 0.00 | 0.00 | 0.00 | 53 | 1011.7 |
| 20260508094821 | 57 | 82 | 0.0 | 0.0 | 0.00 | 0.00 | 0.00 | 53 | 1011.6 |
| 20260508094515 | 57 | 51 | 0.0 | 0.0 | 0.00 | 0.00 | 0.00 | 53 | 1010.8 |
| 20260508094335 | 57 | 56 | 0.0 | 0.0 | 0.00 | 0.00 | 0.00 | 52 | 1011.6 |
| 20260508093828 | 58 | 56 | 0.0 | 1.0 | 0.00 | 0.00 | 0.00 | 52 | 1011.7 |
| 20260508093322 | 58 | 109 | 0.0 | 2.0 | 0.00 | 0.00 | 0.00 | 52 | 1011.7 |
| 20260508093104 | 57 | 40 | 0.0 | 3.0 | 0.00 | 0.00 | 0.00 | 52 | 1010.9 |
| 20260508092836 | 58 | 40 | 0.0 | 3.0 | 0.00 | 0.00 | 0.00 | 53 | 1011.7 |
| 20260508092322 | 58 | 77 | 0.0 | 2.0 | 0.00 | 0.00 | 0.00 | 52 | 1011.7 |
| 20260508091822 | 58 | 82 | 0.0 | 1.0 | 0.00 | 0.00 | 0.00 | 52 | 1011.7 |
| 20260508091337 | 57 | 86 | 0.0 | 0.0 | 0.00 | 0.00 | 0.00 | 54 | 1011.6 |
| 20260508090844 | 57 | 77 | 0.0 | 0.0 | 0.00 | 0.00 | 0.00 | 56 | 1011.6 |
| 20260508090340 | 58 | 93 | 0.0 | 0.0 | 0.00 | 0.00 | 0.00 | 58 | 1011.6 |
| 20260508090057 | 57 | 86 | 0.0 | 0.0 | 0.00 | 0.00 | 0.00 | 58 | 1010.7 |
| 20260508085830 | 58 | 1 | 0.0 | 0.0 | 0.00 | 0.00 | 0.00 | 64 | 1011.6 |
| 20260508085358 | 59 | 100 | 0.0 | 0.0 | 0.00 | 0.00 | 0.00 | 52 | 1011.6 |
| 20260508084825 | 59 | 101 | 0.0 | 0.0 | 0.00 | 0.00 | 0.00 | 49 | 1011.6 |
| 20260508084619 | 59 | 100 | 0.0 | 0.0 | 0.00 | 0.00 | 0.00 | 48 | 1010.7 |
| 20260508084326 | 59 | 97 | 0.0 | 0.0 | 0.00 | 0.00 | 0.00 | 48 | 1011.6 |
| 20260508083837 | 59 | 99 | 0.0 | 1.0 | 0.00 | 0.00 | 0.00 | 49 | 1011.6 |
| 20260508083324 | 59 | 105 | 0.0 | 1.0 | 0.00 | 0.00 | 0.00 | 50 | 1011.4 |
| 20260508083151 | 58 | 46 | 0.0 | 1.0 | 0.00 | 0.00 | 0.00 | 50 | 1010.6 |
| 20260508082846 | 58 | 78 | 0.0 | 0.0 | 0.00 | 0.00 | 0.00 | 53 | 1011.4 |
| 20260508082324 | 58 | 30 | 0.0 | 0.0 | 0.00 | 0.00 | 0.00 | 52 | 1011.5 |
| 20260508081828 | 58 | 30 | 0.0 | 0.0 | 0.00 | 0.00 | 0.00 | 51 | 1011.5 |
| 20260508081556 | 58 | 30 | 0.0 | 0.0 | 0.00 | 0.00 | 0.00 | 51 | 1010.6 |
| 20260508081328 | 59 | 15 | 0.0 | 0.0 | 0.00 | 0.00 | 0.00 | 54 | 1011.5 |
| 20260508080822 | 59 | 65 | 0.0 | 0.0 | 0.00 | 0.00 | 0.00 | 50 | 1011.4 |
| 20260508080341 | 59 | 101 | 0.0 | 0.0 | 0.00 | 0.00 | 0.00 | 50 | 1011.5 |
| 20260508075835 | 59 | 101 | 0.0 | 0.0 | 0.00 | 0.00 | 0.00 | 51 | 1011.5 |
| 20260508075339 | 59 | 108 | 0.0 | 0.0 | 0.00 | 0.00 | 0.00 | 50 | 1011.6 |
| 20260508074837 | 60 | 39 | 0.0 | 1.0 | 0.00 | 0.00 | 0.00 | 50 | 1011.6 |
| 20260508074501 | 59 | 27 | 0.0 | 1.0 | 0.00 | 0.00 | 0.00 | 50 | 1010.7 |
| 20260508074323 | 60 | 56 | 0.0 | 1.0 | 0.00 | 0.00 | 0.00 | 49 | 1011.6 |
| 20260508073325 | 61 | 23 | 0.0 | 6.0 | 0.00 | 0.00 | 0.00 | 49 | 1011.4 |
| 20260508073104 | 60 | 40 | 2.0 | 6.0 | 0.00 | 0.00 | 0.00 | 48 | 1010.5 |
| 20260508072850 | 60 | 46 | 2.0 | 6.0 | 0.00 | 0.00 | 0.00 | 49 | 1011.5 |
| 20260508072341 | 60 | 91 | 0.0 | 1.0 | 0.00 | 0.00 | 0.00 | 49 | 1011.4 |
| 20260508071842 | 60 | 60 | 0.0 | 5.0 | 0.00 | 0.00 | 0.00 | 51 | 1011.4 |
| 20260508071503 | 59 | 107 | 0.0 | 5.0 | 0.00 | 0.00 | 0.00 | 52 | 1010.4 |
| 20260508071326 | 60 | 72 | 2.0 | 5.0 | 0.00 | 0.00 | 0.00 | 54 | 1011.3 |
| 20260508070828 | 59 | 44 | 3.0 | 10.0 | 0.00 | 0.00 | 0.00 | 59 | 1011.3 |
| 20260508070342 | 59 | 29 | 8.0 | 10.0 | 0.00 | 0.00 | 0.00 | 58 | 1011.2 |
| 20260508070122 | 59 | 42 | 4.0 | 8.0 | 0.00 | 0.00 | 0.00 | 62 | 1010.3 |
| 20260508065838 | 60 | 46 | 3.0 | 6.0 | 0.00 | 0.00 | 0.00 | 61 | 1011.2 |
| 20260508065331 | 61 | 34 | 3.0 | 5.0 | 0.00 | 0.00 | 0.00 | 58 | 1011.4 |
| 20260508064825 | 61 | 39 | 0.0 | 0.0 | 0.00 | 0.00 | 0.00 | 48 | 1011.4 |
| 20260508064611 | 60 | 47 | 0.0 | 0.0 | 0.00 | 0.00 | 0.00 | 48 | 1010.5 |
| 20260508064320 | 61 | 37 | 0.0 | 0.0 | 0.00 | 0.00 | 0.00 | 47 | 1011.3 |
| 20260508063837 | 61 | 83 | 0.0 | 1.0 | 0.00 | 0.00 | 0.00 | 48 | 1011.3 |
| 20260508063326 | 61 | 94 | 0.0 | 1.0 | 0.00 | 0.00 | 0.00 | 49 | 1011.3 |
| 20260508063057 | 61 | 79 | 0.0 | 1.0 | 0.00 | 0.00 | 0.00 | 48 | 1010.4 |
| 20260508062859 | 61 | 76 | 0.0 | 1.0 | 0.00 | 0.00 | 0.00 | 48 | 1011.3 |
| 20260508062325 | 61 | 56 | 0.0 | 1.0 | 0.00 | 0.00 | 0.00 | 48 | 1011.3 |
| 20260508061832 | 61 | 94 | 0.0 | 0.0 | 0.00 | 0.00 | 0.00 | 48 | 1011.3 |
| 20260508061604 | 60 | 52 | 0.0 | 0.0 | 0.00 | 0.00 | 0.00 | 49 | 1010.4 |
| 20260508061336 | 61 | 89 | 0.0 | 0.0 | 0.00 | 0.00 | 0.00 | 49 | 1011.2 |
| 20260508060852 | 60 | 85 | 0.0 | 0.0 | 0.00 | 0.00 | 0.00 | 51 | 1011.2 |
| 20260508060337 | 60 | 96 | 0.0 | 0.0 | 0.00 | 0.00 | 0.00 | 52 | 1011.2 |
| 20260508060117 | 60 | 74 | 0.0 | 0.0 | 0.00 | 0.00 | 0.00 | 53 | 1010.3 |
| 20260508055851 | 60 | 73 | 0.0 | 0.0 | 0.00 | 0.00 | 0.00 | 54 | 1011.2 |
| 20260508055352 | 61 | 74 | 0.0 | 1.0 | 0.00 | 0.00 | 0.00 | 51 | 1011.1 |
| 20260508054833 | 62 | 75 | 0.0 | 1.0 | 0.00 | 0.00 | 0.00 | 50 | 1011.0 |
| 20260508054606 | 62 | 46 | 0.0 | 1.0 | 0.00 | 0.00 | 0.00 | 49 | 1010.1 |
| 20260508054344 | 63 | 46 | 0.0 | 1.0 | 0.00 | 0.00 | 0.00 | 48 | 1011.0 |
| 20260508053323 | 64 | 85 | 0.0 | 0.0 | 0.00 | 0.00 | 0.00 | 46 | 1010.9 |
| 20260508053106 | 63 | 85 | 0.0 | 0.0 | 0.00 | 0.00 | 0.00 | 46 | 1010.1 |
| 20260508052845 | 63 | 85 | 0.0 | 0.0 | 0.00 | 0.00 | 0.00 | 47 | 1010.9 |
| 20260508052318 | 63 | 101 | 0.0 | 0.0 | 0.00 | 0.00 | 0.00 | 47 | 1010.9 |
| 20260508051829 | 63 | 92 | 0.0 | 0.0 | 0.00 | 0.00 | 0.00 | 48 | 1010.9 |
| 20260508051615 | 62 | 89 | 0.0 | 0.0 | 0.00 | 0.00 | 0.00 | 48 | 1010.0 |
| 20260508051333 | 63 | 95 | 0.0 | 0.0 | 0.00 | 0.00 | 0.00 | 49 | 1010.9 |
| 20260508050823 | 63 | 83 | 0.0 | 0.0 | 0.00 | 0.00 | 0.00 | 50 | 1010.9 |
| 20260508050323 | 64 | 41 | 0.0 | 0.0 | 0.00 | 0.00 | 0.00 | 48 | 1010.9 |
| 20260508050106 | 63 | 88 | 0.0 | 0.0 | 0.00 | 0.00 | 0.00 | 50 | 1010.0 |
| 20260508045834 | 64 | 81 | 0.0 | 0.0 | 0.00 | 0.00 | 0.00 | 45 | 1010.9 |
| 20260508045337 | 65 | 91 | 0.0 | 0.0 | 0.00 | 0.00 | 0.00 | 45 | 1010.8 |
| 20260508044820 | 65 | 89 | 0.0 | 0.0 | 0.00 | 0.00 | 0.00 | 45 | 1010.8 |
| 20260508044602 | 65 | 89 | 0.0 | 1.0 | 0.00 | 0.00 | 0.00 | 46 | 1009.8 |
| 20260508044338 | 65 | 98 | 0.0 | 1.0 | 0.00 | 0.00 | 0.00 | 44 | 1010.7 |
| 20260508043858 | 66 | 102 | 0.0 | 1.0 | 0.00 | 0.00 | 0.00 | 44 | 1010.8 |
| 20260508043327 | 65 | 129 | 0.0 | 1.0 | 0.00 | 0.00 | 0.00 | 46 | 1010.8 |
| 20260508043102 | 64 | 105 | 0.0 | 1.0 | 0.00 | 0.00 | 0.00 | 46 | 1009.9 |
| 20260508042819 | 65 | 100 | 0.0 | 0.0 | 0.00 | 0.00 | 0.00 | 48 | 1010.9 |
| 20260508042318 | 65 | 80 | 0.0 | 1.0 | 0.00 | 0.00 | 0.00 | 53 | 1010.8 |
| 20260508041831 | 66 | 113 | 0.0 | 2.0 | 0.00 | 0.00 | 0.00 | 49 | 1010.8 |
| 20260508041614 | 65 | 129 | 0.0 | 2.0 | 0.00 | 0.00 | 0.00 | 55 | 1009.8 |
| 20260508041343 | 67 | 249 | 0.0 | 2.0 | 0.00 | 0.00 | 0.00 | 56 | 1010.7 |
| 20260508040831 | 67 | 246 | 0.0 | 1.0 | 0.00 | 0.00 | 0.00 | 44 | 1010.7 |
| 20260508040333 | 68 | 261 | 0.0 | 1.0 | 0.00 | 0.00 | 0.00 | 39 | 1010.7 |
| 20260508040114 | 67 | 109 | 0.0 | 1.0 | 0.00 | 0.00 | 0.00 | 39 | 1009.7 |
| 20260508035847 | 67 | 107 | 0.0 | 0.0 | 0.00 | 0.00 | 0.00 | 40 | 1010.6 |
| 20260508035317 | 68 | 64 | 0.0 | 0.0 | 0.00 | 0.00 | 0.00 | 41 | 1010.5 |
| 20260508034502 | 67 | 84 | 0.0 | 0.0 | 0.00 | 0.00 | 0.00 | 47 | 1009.6 |
| 20260508034324 | 67 | 84 | 0.0 | 0.0 | 0.00 | 0.00 | 0.00 | 50 | 1010.5 |
| 20260508033843 | 67 | 114 | 0.0 | 0.0 | 0.00 | 0.00 | 0.00 | 54 | 1010.5 |
| 20260508033341 | 69 | 253 | 0.0 | 0.0 | 0.00 | 0.00 | 0.00 | 52 | 1010.3 |
| 20260508033111 | 69 | 228 | 0.0 | 0.0 | 0.00 | 0.00 | 0.00 | 50 | 1009.4 |
| 20260508032828 | 70 | 228 | 0.0 | 0.0 | 0.00 | 0.00 | 0.00 | 47 | 1010.4 |
| 20260508032320 | 71 | 53 | 0.0 | 1.0 | 0.00 | 0.00 | 0.00 | 36 | 1010.3 |
| 20260508031828 | 71 | 51 | 0.0 | 1.0 | 0.00 | 0.00 | 0.00 | 36 | 1010.3 |
| 20260508031556 | 70 | 86 | 0.0 | 0.0 | 0.00 | 0.00 | 0.00 | 37 | 1009.3 |
| 20260508031331 | 71 | 91 | 0.0 | 1.0 | 0.00 | 0.00 | 0.00 | 37 | 1010.3 |
| 20260508030843 | 71 | 75 | 0.0 | 2.0 | 0.00 | 0.00 | 0.00 | 38 | 1010.5 |
| 20260508030331 | 72 | 31 | 1.0 | 2.0 | 0.00 | 0.00 | 0.00 | 37 | 1010.4 |
| 20260508030000 | 72 | 19 | 0.0 | 1.0 | 0.00 | 0.00 | 0.00 | 37 | 1009.3 |
| 20260508025824 | 73 | 56 | 0.0 | 1.0 | 0.00 | 0.00 | 0.00 | 34 | 1010.3 |
| 20260508025348 | 72 | 101 | 0.0 | 0.0 | 0.00 | 0.00 | 0.00 | 35 | 1010.4 |
| 20260508024847 | 73 | 56 | 0.0 | 0.0 | 0.00 | 0.00 | 0.00 | 39 | 1010.3 |
| 20260508024510 | 73 | 56 | 0.0 | 0.0 | 0.00 | 0.00 | 0.00 | 36 | 1009.3 |
| 20260508024326 | 74 | 56 | 0.0 | 1.0 | 0.00 | 0.00 | 0.00 | 34 | 1010.3 |
| 20260508023832 | 75 | 94 | 0.0 | 1.0 | 0.00 | 0.00 | 0.00 | 33 | 1010.3 |
| 20260508023330 | 75 | 93 | 0.0 | 1.0 | 0.00 | 0.00 | 0.00 | 34 | 1010.3 |
| 20260508023107 | 75 | 89 | 0.0 | 1.0 | 0.00 | 0.00 | 0.00 | 35 | 1009.3 |
| 20260508022821 | 76 | 97 | 0.0 | 1.0 | 0.00 | 0.00 | 0.00 | 34 | 1010.3 |
| 20260508022331 | 76 | 96 | 0.0 | 1.0 | 0.00 | 0.00 | 0.00 | 36 | 1010.3 |
| 20260508021822 | 77 | 120 | 0.0 | 1.0 | 0.00 | 0.00 | 0.00 | 34 | 1010.2 |
| 20260508021654 | 76 | 121 | 0.0 | 1.0 | 0.00 | 0.00 | 0.00 | 34 | 1009.2 |
| 20260508021401 | 76 | 219 | 0.0 | 0.0 | 0.00 | 0.00 | 0.00 | 34 | 1010.3 |
| 20260508020836 | 75 | 219 | 0.0 | 0.0 | 0.00 | 0.00 | 0.00 | 38 | 1010.5 |
| 20260508020345 | 73 | 219 | 0.0 | 1.0 | 0.00 | 0.00 | 0.00 | 34 | 1010.3 |
| 20260508020114 | 72 | 219 | 0.0 | 1.0 | 0.00 | 0.00 | 0.00 | 36 | 1009.3 |
| 20260508015841 | 72 | 219 | 0.0 | 1.0 | 0.00 | 0.00 | 0.00 | 45 | 1010.4 |
| 20260508015327 | 72 | 252 | 0.0 | 0.0 | 0.00 | 0.00 | 0.00 | 51 | 1010.3 |
| 20260508014835 | 71 | 225 | 0.0 | 1.0 | 0.00 | 0.00 | 0.00 | 54 | 1010.3 |
| 20260508014608 | 71 | 223 | 0.0 | 2.0 | 0.00 | 0.00 | 0.00 | 54 | 1009.3 |
| 20260508014318 | 72 | 246 | 0.0 | 2.0 | 0.00 | 0.00 | 0.00 | 55 | 1010.3 |
| 20260508013832 | 75 | 290 | 0.0 | 1.0 | 0.00 | 0.00 | 0.00 | 35 | 1010.3 |
| 20260508013331 | 75 | 223 | 0.0 | 1.0 | 0.00 | 0.00 | 0.00 | 36 | 1010.4 |
| 20260508012904 | 75 | 239 | 0.0 | 1.0 | 0.00 | 0.00 | 0.00 | 38 | 1010.4 |
| 20260508012326 | 75 | 257 | 0.0 | 2.0 | 0.00 | 0.00 | 0.00 | 33 | 1010.5 |
| 20260508011821 | 73 | 222 | 0.0 | 2.0 | 0.00 | 0.00 | 0.00 | 37 | 1010.5 |
| 20260508011618 | 73 | 219 | 0.0 | 2.0 | 0.00 | 0.00 | 0.00 | 38 | 1009.4 |
| 20260508011329 | 73 | 226 | 2.0 | 2.0 | 0.00 | 0.00 | 0.00 | 39 | 1010.6 |
| 20260508010839 | 72 | 205 | 0.0 | 2.0 | 0.00 | 0.00 | 0.00 | 45 | 1010.6 |
| 20260508010324 | 71 | 236 | 0.0 | 1.0 | 0.00 | 0.00 | 0.00 | 49 | 1010.6 |
| 20260508010108 | 70 | 239 | 0.0 | 1.0 | 0.00 | 0.00 | 0.00 | 50 | 1009.6 |
| 20260508005830 | 72 | 253 | 0.0 | 2.0 | 0.00 | 0.00 | 0.00 | 46 | 1010.6 |
| 20260508005343 | 73 | 253 | 1.0 | 2.0 | 0.00 | 0.00 | 0.00 | 44 | 1010.6 |
| 20260508004818 | 75 | 232 | 1.0 | 2.0 | 0.00 | 0.00 | 0.00 | 40 | 1010.6 |
| 20260508004605 | 75 | 224 | 1.0 | 2.0 | 0.00 | 0.00 | 0.00 | 30 | 1009.6 |
| 20260508004351 | 76 | 239 | 0.0 | 1.0 | 0.00 | 0.00 | 0.00 | 30 | 1010.7 |
| 20260508003828 | 75 | 229 | 1.0 | 2.0 | 0.00 | 0.00 | 0.00 | 33 | 1010.7 |
| 20260508003318 | 75 | 235 | 1.0 | 2.0 | 0.00 | 0.00 | 0.00 | 35 | 1010.8 |
| 20260508003113 | 74 | 231 | 1.0 | 2.0 | 0.00 | 0.00 | 0.00 | 35 | 1009.8 |
| 20260508002822 | 75 | 232 | 2.0 | 3.0 | 0.00 | 0.00 | 0.00 | 34 | 1010.8 |
| 20260508002355 | 75 | 236 | 1.0 | 4.0 | 0.00 | 0.00 | 0.00 | 34 | 1010.8 |
| 20260508001843 | 75 | 239 | 3.0 | 4.0 | 0.00 | 0.00 | 0.00 | 33 | 1010.8 |
| 20260508001617 | 75 | 239 | 3.0 | 4.0 | 0.00 | 0.00 | 0.00 | 30 | 1009.8 |
| 20260508001327 | 76 | 231 | 1.0 | 3.0 | 0.00 | 0.00 | 0.00 | 32 | 1010.8 |
| 20260508000833 | 75 | 236 | 2.0 | 4.0 | 0.00 | 0.00 | 0.00 | 33 | 1010.8 |
| 20260508000323 | 74 | 236 | 2.0 | 4.0 | 0.00 | 0.00 | 0.00 | 38 | 1010.8 |
| 20260507235833 | 74 | 232 | 2.0 | 4.0 | 0.00 | 0.00 | 0.00 | 38 | 1010.9 |
| 20260507235335 | 74 | 224 | 4.0 | 4.0 | 0.00 | 0.00 | 0.00 | 37 | 1010.9 |
| 20260507234830 | 74 | 229 | 2.0 | 4.0 | 0.00 | 0.00 | 0.00 | 35 | 1010.9 |
| 20260507234603 | 73 | 219 | 2.0 | 4.0 | 0.00 | 0.00 | 0.00 | 34 | 1010.0 |
| 20260507234341 | 73 | 229 | 2.0 | 4.0 | 0.00 | 0.00 | 0.00 | 34 | 1010.9 |
| 20260507233831 | 72 | 235 | 2.0 | 3.0 | 0.00 | 0.00 | 0.00 | 36 | 1011.0 |
| 20260507233329 | 72 | 208 | 2.0 | 4.0 | 0.00 | 0.00 | 0.00 | 40 | 1011.0 |
| 20260507233001 | 71 | 229 | 1.0 | 6.0 | 0.00 | 0.00 | 0.00 | 47 | 1010.1 |
| 20260507232822 | 72 | 226 | 1.0 | 6.0 | 0.00 | 0.00 | 0.00 | 43 | 1011.1 |
| 20260507232331 | 71 | 217 | 5.0 | 6.0 | 0.00 | 0.00 | 0.00 | 41 | 1011.2 |
| 20260507231836 | 72 | 242 | 4.0 | 5.0 | 0.00 | 0.00 | 0.00 | 39 | 1011.1 |
| 20260507231326 | 73 | 222 | 4.0 | 5.0 | 0.00 | 0.00 | 0.00 | 40 | 1011.2 |
| 20260507230828 | 73 | 227 | 3.0 | 4.0 | 0.00 | 0.00 | 0.00 | 36 | 1011.2 |
| 20260507230106 | 74 | 233 | 2.0 | 4.0 | 0.00 | 0.00 | 0.00 | 29 | 1010.5 |
| 20260507225820 | 75 | 285 | 0.0 | 1.0 | 0.00 | 0.00 | 0.00 | 29 | 1011.4 |
| 20260507225327 | 74 | 260 | 0.0 | 0.0 | 0.00 | 0.00 | 0.00 | 29 | 1011.4 |
| 20260507224820 | 73 | 252 | 0.0 | 0.0 | 0.00 | 0.00 | 0.00 | 32 | 1011.5 |
| 20260507224608 | 71 | 232 | 0.0 | 1.0 | 0.00 | 0.00 | 0.00 | 32 | 1010.5 |
| 20260507224331 | 71 | 260 | 0.0 | 1.0 | 0.00 | 0.00 | 0.00 | 34 | 1011.6 |
| 20260507223821 | 70 | 240 | 0.0 | 1.0 | 0.00 | 0.00 | 0.00 | 38 | 1011.7 |
| 20260507223328 | 69 | 235 | 0.0 | 3.0 | 0.00 | 0.00 | 0.00 | 42 | 1011.7 |
| 20260507223014 | 68 | 236 | 0.0 | 3.0 | 0.00 | 0.00 | 0.00 | 55 | 1010.8 |
| 20260507222834 | 69 | 260 | 1.0 | 3.0 | 0.00 | 0.00 | 0.00 | 53 | 1011.8 |
| 20260507222325 | 70 | 255 | 0.0 | 2.0 | 0.00 | 0.00 | 0.00 | 48 | 1011.8 |
| 20260507221825 | 70 | 238 | 2.0 | 2.0 | 0.00 | 0.00 | 0.00 | 42 | 1011.9 |
| 20260507221604 | 70 | 235 | 1.0 | 2.0 | 0.00 | 0.00 | 0.00 | 42 | 1010.9 |
| 20260507221327 | 70 | 221 | 2.0 | 2.0 | 0.00 | 0.00 | 0.00 | 39 | 1012.0 |
| 20260507220832 | 70 | 239 | 1.0 | 4.0 | 0.00 | 0.00 | 0.00 | 36 | 1012.1 |
| 20260507220340 | 69 | 238 | 2.0 | 5.0 | 0.00 | 0.00 | 0.00 | 42 | 1012.2 |
| 20260507220105 | 69 | 245 | 2.0 | 5.0 | 0.00 | 0.00 | 0.00 | 44 | 1011.2 |
| 20260507215820 | 69 | 235 | 4.0 | 5.0 | 0.00 | 0.00 | 0.00 | 43 | 1012.3 |
| 20260507214821 | 70 | 239 | 1.0 | 4.0 | 0.00 | 0.00 | 0.00 | 40 | 1012.4 |
| 20260507214613 | 69 | 235 | 1.0 | 5.0 | 0.00 | 0.00 | 0.00 | 37 | 1011.3 |
| 20260507214325 | 68 | 225 | 2.0 | 6.0 | 0.00 | 0.00 | 0.00 | 39 | 1012.4 |
| 20260507213851 | 68 | 250 | 5.0 | 6.0 | 0.00 | 0.00 | 0.00 | 51 | 1012.5 |
| 20260507213357 | 69 | 229 | 2.0 | 4.0 | 0.00 | 0.00 | 0.00 | 52 | 1012.6 |
| 20260507213110 | 68 | 236 | 1.0 | 3.0 | 0.00 | 0.00 | 0.00 | 50 | 1011.6 |
| 20260507212847 | 69 | 231 | 1.0 | 4.0 | 0.00 | 0.00 | 0.00 | 50 | 1012.6 |
| 20260507212335 | 68 | 216 | 2.0 | 4.0 | 0.00 | 0.00 | 0.00 | 50 | 1012.7 |
| 20260507211823 | 67 | 239 | 4.0 | 4.0 | 0.00 | 0.00 | 0.00 | 46 | 1012.8 |
| 20260507211609 | 66 | 245 | 1.0 | 4.0 | 0.00 | 0.00 | 0.00 | 53 | 1011.8 |
| 20260507211329 | 67 | 239 | 2.0 | 5.0 | 0.00 | 0.00 | 0.00 | 55 | 1012.8 |
| 20260507210836 | 68 | 231 | 3.0 | 5.0 | 0.00 | 0.00 | 0.00 | 51 | 1012.9 |
| 20260507210335 | 68 | 252 | 4.0 | 5.0 | 0.00 | 0.00 | 0.00 | 45 | 1013.0 |
| 20260507210104 | 67 | 238 | 4.0 | 5.0 | 0.00 | 0.00 | 0.00 | 45 | 1012.1 |
| 20260507205823 | 67 | 222 | 3.0 | 5.0 | 0.00 | 0.00 | 0.00 | 52 | 1013.0 |
| 20260507205326 | 68 | 226 | 4.0 | 6.0 | 0.00 | 0.00 | 0.00 | 54 | 1013.1 |
| 20260507204851 | 68 | 236 | 3.0 | 5.0 | 0.00 | 0.00 | 0.00 | 54 | 1013.2 |
| 20260507204613 | 67 | 229 | 1.0 | 4.0 | 0.00 | 0.00 | 0.00 | 51 | 1012.2 |
| 20260507204334 | 67 | 239 | 3.0 | 4.0 | 0.00 | 0.00 | 0.00 | 44 | 1013.2 |
| 20260507203825 | 67 | 226 | 0.0 | 4.0 | 0.00 | 0.00 | 0.00 | 49 | 1013.3 |
| 20260507203335 | 65 | 219 | 2.0 | 6.0 | 0.00 | 0.00 | 0.00 | 57 | 1013.4 |
| 20260507203013 | 65 | 242 | 4.0 | 6.0 | 0.00 | 0.00 | 0.00 | 62 | 1012.6 |
| 20260507202830 | 66 | 276 | 4.0 | 6.0 | 0.00 | 0.00 | 0.00 | 57 | 1013.5 |
| 20260507202329 | 68 | 245 | 5.0 | 7.0 | 0.00 | 0.00 | 0.00 | 50 | 1013.5 |
| 20260507201826 | 70 | 206 | 2.0 | 7.0 | 0.00 | 0.00 | 0.00 | 35 | 1013.6 |
| 20260507201511 | 67 | 151 | 0.0 | 4.0 | 0.00 | 0.00 | 0.00 | 37 | 1012.7 |
| 20260507201336 | 67 | 110 | 0.0 | 4.0 | 0.00 | 0.00 | 0.00 | 43 | 1013.7 |
| 20260507200331 | 67 | 235 | 3.0 | 5.0 | 0.00 | 0.00 | 0.00 | 49 | 1013.8 |
| 20260507200056 | 66 | 224 | 3.0 | 5.0 | 0.00 | 0.00 | 0.00 | 47 | 1012.8 |
| 20260507195834 | 67 | 198 | 2.0 | 5.0 | 0.00 | 0.00 | 0.00 | 46 | 1013.8 |
| 20260507195341 | 66 | 251 | 0.0 | 3.0 | 0.00 | 0.00 | 0.00 | 47 | 1013.9 |
| 20260507194842 | 64 | 242 | 1.0 | 4.0 | 0.00 | 0.00 | 0.00 | 53 | 1013.8 |
| 20260507194601 | 63 | 232 | 1.0 | 5.0 | 0.00 | 0.00 | 0.00 | 62 | 1012.9 |
| 20260507194318 | 64 | 243 | 3.0 | 5.0 | 0.00 | 0.00 | 0.00 | 58 | 1013.9 |